Volver al catálogo

STARLINK-36348

ActivoComunicacionesVLEO
NORAD 67851·PAYLOAD·🇺🇸 United States

Lanzado Feb 20, 2026 desde Vandenberg Space Force Base

Loading…

Próximos Pases (próximas 24 horas)

TLE

ActualizadoSource: CelesTrak SupGP

Época: Sep 15, 2026, 03:33 UTC

1 67851C 26034B   26258.14840278  .00199250  00000+0  58711-2 0  2586
2 67851  53.1602  42.5238 0001476  96.9542  25.6947 15.34375572    19

Sigue STARLINK-36348 en tiempo real con AllMySat

Download on the App Store